Hourly Data Report for October 03, 2017

All times are specified in Local Standard Time (LST). Add 1 hour to adjust for Daylight Saving Time where and when it is observed.

RANKIN INLET A
NUNAVUT

62°48'38.000" N
92°06'53.000" W
32.30 m
2303405
71083
YRT

Download Data

Hourly Data (October 2017)
Hourly Data Report for October 3, 2017
Temp Definition
°C
Dew Point Temp Definition
°C
Rel Hum Definition
%
Wind Dir Definition
10's deg

Wind Spd Definition
km/h
Visibility Definition
km
Stn Press Definition
kPa
Hmdx Definition


Wind Chill Definition


Weather Definition


TIME
00:00 Legend Double Dagger -1.3 -4.0 82 30 25 24.1 100.43   -8 Mainly Clear
01:00 Legend Double Dagger -1.5 -4.4 80 31 40 24.1 100.40   -9 LegendNANA
02:00 Legend Double Dagger -1.6 -4.9 79 31 37 24.1 100.42   -9 LegendNANA
03:00 Legend Double Dagger -1.8 -4.5 82 30 38 24.1 100.45   -10 Mainly Clear
04:00 Legend Double Dagger -1.5 -4.1 83 30 41 24.1 100.48   -9 LegendNANA
05:00 Legend Double Dagger -2.1 -4.6 83 30 38 24.1 100.51   -10 LegendNANA
06:00 Legend Double Dagger -2.1 -4.9 82 31 43 24.1 100.52   -10 Mainly Clear
07:00 Legend Double Dagger -2.5 -4.8 85 30 32 24.1 100.53   -10 LegendNANA
08:00 Legend Double Dagger -1.6 -4.9 78 30 43 24.1 100.53   -10 LegendNANA
09:00 Legend Double Dagger -0.8 -4.5 76 30 39 24.1 100.52   -8 Mainly Clear
10:00 Legend Double Dagger -0.7 -5.2 71 30 43 24.1 100.53   -9 LegendNANA
11:00 Legend Double Dagger -0.8 -5.4 71 31 52 24.1 100.51   -9 LegendNANA
12:00 Legend Double Dagger -0.9 -5.6 70 31 42 24.1 100.53   -9 Mostly Cloudy
13:00 Legend Double Dagger -1.0 -5.6 71 31 46 24.1 100.53   -9 LegendNANA
14:00 Legend Double Dagger -1.4 -6.3 69 30 49 24.1 100.53   -10 LegendNANA
15:00 Legend Double Dagger -1.8 -5.2 77 30 37 16.1 100.55   -10 Cloudy
16:00 Legend Double Dagger -2.2 -4.3 86 32 31 24.1 100.57   -9 Ice Pellets
17:00 Legend Double Dagger -2.2 -6.1 75 31 39 24.1 100.57   -10 LegendNANA
18:00 Legend Double Dagger -2.1 -5.2 80 31 27 24.1 100.53   -9 Cloudy
19:00 Legend Double Dagger -2.2 -4.6 84 30 30 16.1 100.51   -9 Snow
20:00 Legend Double Dagger -1.8 -5.4 77 30 35 24.1 100.46   -9 Snow
21:00 Legend Double Dagger -1.6 -5.2 77 30 31 24.1 100.42   -9 Snow
22:00 Legend Double Dagger -2.1 -4.7 83 30 25 24.1 100.41   -9 Snow
23:00 Legend Double Dagger -2.3 -5.8 77 31 30 24.1 100.36   -9 Snow

Notes on Data Quality.

Legend

  • E = Estimated
  • M = Missing
  • NA = Not Available
  • ‡ = Partner data that is not subject to review by the National Climate Archives
Date modified: